Chicago, IL

4:09 AM CST on November 17, 2019 (GMT -0600)
Chicago-O'Hare International

Weather History for KORD - May, 2019

Change the Weather History Date:

Thursday, May 30, 2019

  Actual Average Record
Temperature  
Mean Temperature 69 °F 64 °F  
Max Temperature 78 °F 74 °F 93 °F (1953)
Min Temperature 60 °F 53 °F 35 °F (1873)
Degree Days  
Heating Degree Days 0 4  
Month to date heating degree days 236 221  
Since 1 July heating degree days 6425 6288  
Cooling Degree Days 4 3  
Month to date cooling degree days 23 41  
Year to date cooling degree days 27 51  
Growing Degree Days 19 (Base 50)    
Moisture  
Dew Point 57 °F    
Average Humidity 74    
Maximum Humidity 100    
Minimum Humidity 50    
Precipitation  
Precipitation 0.22 in 0.12 in 1.49 in (2004)
Month to date precipitation 8.25 3.56  
Year to date precipitation 21.13 12.96  
Snow  
Snow 0.00 in 0.00 in 0.00 in ()
Month to date snowfall T 0.0  
Since 1 July snowfall 49.5 36.3  
Snow Depth 0.00 in    
Sea Level Pressure  
Sea Level Pressure 29.75 in    
Wind  
Wind Speed 6 mph ()    
Max Wind Speed 17 mph    
Max Gust Speed 23 mph    
Visibility 8.9 miles    
Events Rain , Thunderstorm    
T = Trace of Precipitation, MM = Missing Value Source: Averaged Metar Reports

Daily Weather History Graph

Daily Weather History Graph

Search for Another Location

Airport or City:

Astronomy

May. 30, 2019 Rise Set
Actual Time 5:19 AM CDT 8:18 PM CDT
Civil Twilight 4:46 AM CDT 8:52 PM CDT
Nautical Twilight 4:03 AM CDT 9:35 PM CDT
Astronomical Twilight 3:14 AM CDT 10:25 PM CDT
Moon 3:30 AM CDT (5/30) 4:21 PM CDT (5/30)
Length of Visible Light 16h 06m
Length of Day
14h 59m
Waning Crescent, 15% of the Moon is Illuminated
May 30
Waning Crescent
Jun 3
New
Jun 10
First Quarter
Jun 17
Full
Jun 25
Last Quarter

Hourly Weather History & Observations

Time (CDT) Temp. Dew Point Humidity Pressure Visibility Wind Dir Wind Speed Gust Speed Precip Events Conditions
12:51 AM 60.1 °F 55.0 °F 83% 29.73 in 10.0 mi SSE 6.9 mph - N/A   Overcast
1:51 AM 62.1 °F 55.0 °F 78% 29.73 in 10.0 mi NE 3.5 mph - N/A   Overcast
2:24 AM 61.0 °F 55.9 °F 83% 29.73 in 10.0 mi West 3.5 mph - N/A   Overcast
2:31 AM 61.0 °F 55.9 °F 83% 29.75 in 7.0 mi SW 5.8 mph - 0.00 in Rain , Thunderstorm Light Thunderstorms and Rain
2:51 AM 60.1 °F 55.9 °F 86% 29.74 in 4.0 mi NNW 9.2 mph - 0.03 in Rain , Thunderstorm Thunderstorms and Rain
3:08 AM 60.1 °F 57.9 °F 93% 29.77 in 4.0 mi SSW 5.8 mph - 0.02 in Rain Rain
3:42 AM 60.1 °F 57.9 °F 93% 29.76 in 5.0 mi WNW 5.8 mph - 0.08 in Rain Light Rain
3:51 AM 60.1 °F 57.9 °F 93% 29.75 in 6.0 mi NW 11.5 mph - 0.08 in Rain Light Rain
4:40 AM 61.0 °F 59.0 °F 93% 29.75 in 5.0 mi WNW 16.1 mph 23.0 mph 0.05 in Rain Rain
4:51 AM 61.0 °F 59.0 °F 93% 29.75 in 8.0 mi WNW 11.5 mph 23.0 mph 0.08 in Rain Light Rain
5:51 AM 60.1 °F 57.9 °F 93% 29.72 in 10.0 mi East 3.5 mph - 0.02 in Rain Light Rain
6:51 AM 60.1 °F 57.9 °F 93% 29.67 in 10.0 mi ESE 9.2 mph - 0.01 in   Mostly Cloudy
7:51 AM 61.0 °F 60.1 °F 97% 29.72 in 10.0 mi SW 8.1 mph - N/A   Mostly Cloudy
8:51 AM 64.9 °F 60.1 °F 84% 29.73 in 10.0 mi Calm Calm - N/A   Scattered Clouds
9:51 AM 68.0 °F 59.0 °F 73% 29.76 in 10.0 mi WNW 6.9 mph - N/A   Mostly Cloudy
10:51 AM 70.0 °F 57.9 °F 65% 29.76 in 10.0 mi West 13.8 mph 18.4 mph N/A   Mostly Cloudy
11:51 AM 70.0 °F 57.9 °F 65% 29.77 in 10.0 mi NNW 8.1 mph - N/A   Mostly Cloudy
12:51 PM 73.9 °F 57.9 °F 57% 29.76 in 10.0 mi WNW 9.2 mph - N/A   Scattered Clouds
1:51 PM 75.9 °F 57.0 °F 52% 29.76 in 10.0 mi NNE 3.5 mph - N/A   Scattered Clouds
2:51 PM 77.0 °F 57.0 °F 50% 29.75 in 10.0 mi WSW 5.8 mph - N/A   Scattered Clouds
3:51 PM 77.0 °F 57.9 °F 52% 29.74 in 10.0 mi SW 8.1 mph - N/A   Mostly Cloudy
4:51 PM 73.9 °F 57.9 °F 57% 29.75 in 10.0 mi NE 12.7 mph - N/A   Mostly Cloudy
5:51 PM 75.0 °F 57.0 °F 53% 29.75 in 10.0 mi East 8.1 mph - N/A   Mostly Cloudy
6:51 PM 73.9 °F 57.0 °F 55% 29.75 in 10.0 mi East 6.9 mph - N/A   Mostly Cloudy
7:51 PM 72.0 °F 55.9 °F 57% 29.77 in 10.0 mi ESE 8.1 mph - N/A   Mostly Cloudy
8:51 PM 70.0 °F 55.9 °F 61% 29.78 in 10.0 mi SE 6.9 mph - N/A   Scattered Clouds
9:51 PM 66.9 °F 55.9 °F 68% 29.79 in 10.0 mi ESE 4.6 mph - N/A   Scattered Clouds
10:51 PM 66.9 °F 55.9 °F 68% 29.81 in 10.0 mi SE 4.6 mph - N/A   Scattered Clouds
11:51 PM 64.9 °F 55.9 °F 73% 29.81 in 10.0 mi Calm Calm - N/A   Scattered Clouds